Time,TemperatureF,DewpointF,PressureIn,WindDirection,WindDirectionDegrees,WindSpeedMPH,WindSpeedGustMPH,Humidity,HourlyPrecipIn,Conditions,Clouds,dailyrainin,SolarRadiationWatts/m^2,SoftwareType,DateUTC
2013-09-16 14:00:00,69.0,54.0,-100.00,NW,318,6.0,13.0,58,-99.99,,,0.00,621.309998,,2013-09-16 21:00:00,
2013-09-16 14:44:00,69.0,54.0,-100.00,NW,318,6.0,13.0,58,-99.99,,,0.00,621.309998,,2013-09-16 21:44:00,
2013-09-16 14:56:00,69.0,54.0,-100.00,NW,318,6.0,13.0,58,-99.99,,,0.00,621.309998,,2013-09-16 21:56:00,
2013-09-16 15:00:00,68.0,54.0,-100.00,NW,322,8.0,15.0,62,-99.99,,,0.00,399.799988,,2013-09-16 22:00:00,
2013-09-16 15:42:00,68.0,54.0,-100.00,NW,322,8.0,15.0,62,-99.99,,,0.00,399.799988,,2013-09-16 22:42:00,
2013-09-16 15:53:00,68.0,54.0,-100.00,NW,322,8.0,15.0,62,-99.99,,,0.00,399.799988,,2013-09-16 22:53:00,
2013-09-16 16:00:00,70.0,55.0,-100.00,NNW,331,8.0,16.0,58,-99.99,,,0.00,529.380005,,2013-09-16 23:00:00,
2013-09-16 16:43:00,70.0,55.0,-100.00,NNW,331,8.0,16.0,58,-99.99,,,0.00,529.380005,,2013-09-16 23:43:00,
2013-09-16 16:53:00,70.0,55.0,-100.00,NNW,331,8.0,16.0,58,-99.99,,,0.00,529.380005,,2013-09-16 23:53:00,
2013-09-16 17:00:00,67.0,53.0,-100.00,NW,319,8.0,16.0,61,-99.99,,,-99.99,248.830002,,2013-09-17 00:00:00,
2013-09-16 17:52:00,67.0,53.0,-100.00,NW,319,8.0,16.0,61,-99.99,,,-99.99,248.830002,,2013-09-17 00:52:00,
2013-09-16 18:00:00,69.0,52.0,-100.00,NNW,330,6.0,11.0,56,-99.99,,,0.00,203.039993,,2013-09-17 01:00:00,
2013-09-16 18:42:00,69.0,52.0,-100.00,NNW,330,6.0,11.0,56,-99.99,,,0.00,203.039993,,2013-09-17 01:42:00,
2013-09-16 18:52:00,69.0,52.0,-100.00,NNW,330,6.0,11.0,56,-99.99,,,0.00,203.039993,,2013-09-17 01:52:00,
2013-09-16 19:00:00,65.0,52.0,-100.00,NW,324,6.0,12.0,63,-99.99,,,0.00,15.690000,,2013-09-17 02:00:00,
2013-09-16 19:42:00,65.0,52.0,-100.00,NW,324,6.0,12.0,63,-99.99,,,0.00,15.690000,,2013-09-17 02:42:00,
2013-09-16 19:52:00,65.0,52.0,-100.00,NW,324,6.0,12.0,63,-99.99,,,0.00,15.690000,,2013-09-17 02:52:00,
2013-09-16 20:00:00,63.0,54.0,-100.00,NW,317,3.0,7.0,73,-99.99,,,0.00,0.000000,,2013-09-17 03:00:00,
2013-09-16 20:54:00,63.0,54.0,-100.00,NW,317,3.0,7.0,73,-99.99,,,0.00,0.000000,,2013-09-17 03:54:00,
2013-09-16 21:00:00,57.0,54.0,-100.00,SE,128,2.0,4.0,89,-99.99,,,0.00,0.120000,,2013-09-17 04:00:00,
2013-09-16 21:44:00,57.0,54.0,-100.00,SE,128,2.0,4.0,89,-99.99,,,0.00,0.120000,,2013-09-17 04:44:00,
2013-09-16 21:54:00,57.0,54.0,-100.00,SE,128,2.0,4.0,89,-99.99,,,0.00,0.120000,,2013-09-17 04:54:00,
2013-09-16 22:00:00,55.0,53.0,-100.00,SE,141,2.0,3.0,93,-99.99,,,0.00,0.120000,,2013-09-17 05:00:00,
2013-09-16 22:52:00,55.0,53.0,-100.00,SE,141,2.0,3.0,93,-99.99,,,0.00,0.120000,,2013-09-17 05:52:00,